Oak Ridge, TN

9:20 AM EDT on August 22, 2017 (GMT -0400)
Oak Ridge

Weather History for KOQT - December, 2011

Change the Weather History Date:

Saturday, December 3, 2011

  Actual Average (KTYS) Record (KTYS)
Temperature  
Mean Temperature 46 °F -  
Max Temperature 60 °F 54 °F 79 °F (1982)
Min Temperature 33 °F 34 °F 10 °F (1929)
Degree Days  
Heating Degree Days 18    
Moisture  
Dew Point 34 °F    
Average Humidity 76    
Maximum Humidity 100    
Minimum Humidity 35    
Precipitation  
Precipitation 0.00 in - - ()
Sea Level Pressure  
Sea Level Pressure 30.48 in    
Wind  
Wind Speed 0 mph (SW)    
Max Wind Speed 4 mph    
Max Gust Speed -    
Visibility 7 miles    
Events Fog    
Averages and records for this station are not official NWS values.
T = Trace of Precipitation, MM = Missing Value Source: NWS Daily Summary

Daily Weather History Graph

Daily Weather History Graph

Search for Another Location

Airport or City:

Trip Planner

Search our weather history database for the weather conditions in past years. The results will help you decide how hot, cold, wet, or windy it might be!

Date:

Astronomy

Dec. 03, 2011 Rise Set
Actual Time 7:30 AM EST 5:22 PM EST
Civil Twilight 7:02 AM EST 5:50 PM EST
Nautical Twilight 6:30 AM EST 6:22 PM EST
Astronomical Twilight 5:59 AM EST 6:53 PM EST
Moon 1:17 PM EST (12/3) 1:08 AM EST (12/3)
Length of Visible Light 10h 48m
Length of Day
9h 51m
Waxing Gibbous, 62% of the Moon is Illuminated
Dec 3
Waxing Gibbous
Dec 10
Full
Dec 17
Last Quarter
Dec 24
New
Jan 1
First Quarter

Hourly Weather History & Observations

Time (EST) Temp. Windchill Dew Point Humidity Pressure Visibility Wind Dir Wind Speed Gust Speed Precip Events Conditions
12:53 AM 35.1 °F - 32.0 °F 89% 30.52 in 10.0 mi Calm Calm - N/A   Clear
1:53 AM 35.1 °F - 32.0 °F 89% 30.51 in 8.0 mi Calm Calm - N/A   Clear
2:53 AM 35.1 °F - 32.0 °F 89% 30.50 in 8.0 mi Calm Calm - N/A   Clear
3:53 AM 35.1 °F - 33.1 °F 92% 30.50 in 7.0 mi Calm Calm - N/A   Clear
4:53 AM 34.0 °F - 33.1 °F 96% 30.50 in 5.0 mi Calm Calm - N/A   Clear
5:53 AM 35.1 °F - 33.1 °F 92% 30.52 in 7.0 mi Calm Calm - N/A   Clear
6:53 AM 34.0 °F - 32.0 °F 92% 30.52 in 5.0 mi Calm Calm - N/A   Clear
7:23 AM 33.8 °F - 30.2 °F 87% 30.49 in 1.8 mi Calm Calm - N/A   Scattered Clouds
7:27 AM 33.8 °F - 32.0 °F 93% 30.49 in 0.8 mi Calm Calm - N/A   Mist
7:53 AM 33.1 °F - 32.0 °F 96% 30.53 in 1.0 mi Calm Calm - N/A   Mist
7:59 AM 33.8 °F - 32.0 °F 93% 30.49 in 3.0 mi Calm Calm - N/A   Overcast
8:12 AM 35.6 °F - 33.8 °F 93% 30.50 in 1.5 mi Calm Calm - N/A   Mostly Cloudy
8:21 AM 33.8 °F - 33.8 °F 100% 30.50 in 0.2 mi Calm Calm - N/A Fog Fog
8:53 AM 36.0 °F - 35.1 °F 97% 30.54 in 4.0 mi Calm Calm - N/A   Mostly Cloudy
9:05 AM 37.4 °F - 35.6 °F 93% 30.50 in 6.0 mi Calm Calm - N/A   Scattered Clouds
9:53 AM 43.0 °F - 39.0 °F 86% 30.53 in 10.0 mi Calm Calm - N/A   Clear
10:53 AM 48.0 °F - 37.0 °F 66% 30.53 in 10.0 mi Calm Calm - N/A   Clear
11:53 AM 53.1 °F - 30.9 °F 43% 30.50 in 10.0 mi Calm Calm - N/A   Clear
12:53 PM 57.9 °F - 30.0 °F 35% 30.46 in 10.0 mi Calm Calm - N/A   Clear
1:53 PM 59.0 °F - 30.9 °F 35% 30.44 in 10.0 mi Calm Calm - N/A   Clear
2:53 PM 60.1 °F - 32.0 °F 35% 30.43 in 10.0 mi Calm Calm - N/A   Clear
3:53 PM 59.0 °F - 32.0 °F 36% 30.42 in 10.0 mi Calm Calm - N/A   Clear
4:53 PM 55.9 °F - 35.1 °F 45% 30.41 in 10.0 mi Calm Calm - N/A   Clear
5:53 PM 51.1 °F - 36.0 °F 56% 30.43 in 10.0 mi Calm Calm - N/A   Clear
6:53 PM 46.9 °F - 37.0 °F 68% 30.43 in 10.0 mi Calm Calm - N/A   Clear
7:53 PM 45.0 °F - 36.0 °F 71% 30.45 in 10.0 mi Calm Calm - N/A   Clear
8:53 PM 42.1 °F - 36.0 °F 79% 30.45 in 10.0 mi Calm Calm - N/A   Clear
9:53 PM 42.1 °F 40.2 °F 35.1 °F 76% 30.44 in 10.0 mi SW 3.5 mph - N/A   Clear
10:53 PM 39.9 °F 37.8 °F 34.0 °F 79% 30.44 in 10.0 mi SW 3.5 mph - N/A   Clear